Weather History for Wahpeton, ND

Change the Weather History Date:

Monday, February 18, 2013

  Actual Average (KFFM) Record (KFFM)
Temperature  
Mean Temperature 16 °F -  
Max Temperature 32 °F 25 °F 56 °F (1981)
Min Temperature 0 °F 6 °F -24 °F (1993)
Degree Days  
Heating Degree Days 49    
Moisture  
Dew Point 8 °F    
Average Humidity 80    
Maximum Humidity 100    
Minimum Humidity 66    
Precipitation  
Precipitation 0.00 in - - ()
Sea Level Pressure  
Sea Level Pressure 29.79 in    
Wind  
Wind Speed 19 mph (NW)    
Max Wind Speed 36 mph    
Max Gust Speed 45 mph    
Visibility 5 miles    
Events      
Averages and records for this station are not official NWS values.
T = Trace of Precipitation, MM = Missing Value Source: NWS Daily Summary

Daily Weather History Graph

Daily Weather History Graph

Search for Another Location

Airport:

Trip Planner

Search our weather history database for the weather conditions in past years. The results will help you decide how hot, cold, wet, or windy it might be!

Date:

Astronomy

Feb. 18, 2013 Rise Set
Actual Time 7:24 AM CST 5:57 PM CST
Civil Twilight 6:53 AM CST 6:27 PM CST
Nautical Twilight 6:18 AM CST 7:02 PM CST
Astronomical Twilight 5:43 AM CST 7:37 PM CST
Moon 11:34 AM CST (2/18) 2:14 AM CST (2/18)
Length of Visible Light 11h 34m
Length of Day
10h 32m
First Quarter, 58% of the Moon is Illuminated
Feb 18
First Quarter
Feb 25
Full
Mar 4
Last Quarter
Mar 11
New
Mar 19
First Quarter

Hourly Weather History & Observations

Time (CST) Temp. Windchill Dew Point Humidity Pressure Visibility Wind Dir Wind Speed Gust Speed Precip Events Conditions
12:15 AM 28.4 °F 19.1 °F 26.6 °F 93% 29.51 in 7.0 mi SSW 10.4 mph - N/A   Overcast
12:35 AM 28.4 °F 22.2 °F 24.8 °F 86% 29.50 in 7.0 mi SSW 5.8 mph - N/A   Overcast
12:55 AM 28.4 °F 22.2 °F 24.8 °F 86% 29.49 in 7.0 mi SSW 5.8 mph - N/A   Mostly Cloudy
1:15 AM 26.6 °F 20.0 °F 24.8 °F 93% 29.49 in 7.0 mi SSW 5.8 mph - N/A   Overcast
1:35 AM 26.6 °F 19.1 °F 24.8 °F 93% 29.50 in 5.0 mi SW 6.9 mph - N/A   Overcast
1:55 AM 28.4 °F 21.2 °F 26.6 °F 93% 29.50 in 7.0 mi SW 6.9 mph - N/A   Overcast
2:15 AM 28.4 °F 23.3 °F 26.6 °F 93% 29.50 in 7.0 mi SW 4.6 mph - N/A   Overcast
2:35 AM 28.4 °F 22.2 °F 26.6 °F 93% 29.49 in 7.0 mi WSW 5.8 mph - N/A   Overcast
2:55 AM 28.4 °F 20.4 °F 26.6 °F 93% 29.49 in 7.0 mi WSW 8.1 mph - N/A   Overcast
3:15 AM 30.2 °F 21.9 °F 26.6 °F 86% 29.49 in 7.0 mi West 9.2 mph - N/A   Overcast
3:35 AM 30.2 °F 20.8 °F 28.4 °F 93% 29.49 in 10.0 mi West 11.5 mph - N/A   Overcast
3:55 AM 32.0 °F 23.6 °F 30.2 °F 93% 29.49 in 7.0 mi West 10.4 mph - N/A   Overcast
4:15 AM 32.0 °F 22.1 °F 32.0 °F 100% 29.49 in 3.0 mi West 13.8 mph - N/A   Overcast
4:35 AM 28.4 °F 13.8 °F 26.6 °F 93% 29.52 in 2.5 mi NNW 25.3 mph 33.4 mph N/A   Overcast
4:55 AM 26.6 °F 12.0 °F 23.0 °F 86% 29.55 in 4.0 mi NNW 23.0 mph 31.1 mph N/A   Overcast
5:15 AM 26.6 °F 12.0 °F 23.0 °F 86% 29.56 in 7.0 mi NNW 23.0 mph 33.4 mph N/A   Overcast
5:35 AM 26.6 °F 11.1 °F 21.2 °F 80% 29.58 in 7.0 mi NW 26.5 mph 33.4 mph N/A   Overcast
5:55 AM 24.8 °F 8.7 °F 21.2 °F 86% 29.59 in 10.0 mi NW 26.5 mph 29.9 mph N/A   Overcast
7:35 AM 19.4 °F 0.8 °F 14.0 °F 80% 29.66 in 4.0 mi NNW 28.8 mph 38.0 mph N/A   Overcast
7:55 AM 17.6 °F -1.3 °F 12.2 °F 79% 29.67 in 1.8 mi NNW 27.6 mph 39.1 mph N/A   Overcast
8:15 AM 15.8 °F -4.4 °F 12.2 °F 86% 29.69 in 1.2 mi NNW 29.9 mph 42.6 mph N/A   Overcast
8:35 AM 14.0 °F -4.7 °F 10.4 °F 86% 29.71 in 1.5 mi NNW 23.0 mph 38.0 mph N/A   Overcast
8:55 AM 14.0 °F -4.7 °F 10.4 °F 86% 29.73 in 1.0 mi NNW 23.0 mph 34.5 mph N/A   Overcast
9:15 AM 12.2 °F -8.2 °F 8.6 °F 85% 29.73 in 0.5 mi NNW 26.5 mph 40.3 mph N/A   Overcast
9:35 AM 12.2 °F -10.2 °F 8.6 °F 85% 29.74 in 1.2 mi NNW 33.4 mph 39.1 mph N/A   Overcast
9:55 AM 12.2 °F -9.3 °F 6.8 °F 79% 29.76 in 2.0 mi NNW 29.9 mph 39.1 mph N/A   Overcast
10:15 AM 12.2 °F -9.3 °F 5.0 °F 73% 29.77 in 1.8 mi NNW 29.9 mph 35.7 mph N/A   Overcast
10:35 AM 12.2 °F -8.6 °F 5.0 °F 73% 29.78 in 2.5 mi NNW 27.6 mph 39.1 mph N/A   Overcast
10:55 AM 12.2 °F -10.8 °F 5.0 °F 73% 29.79 in 2.0 mi NNW 35.7 mph 42.6 mph N/A   Overcast
11:15 AM 10.4 °F -9.9 °F 5.0 °F 79% 29.81 in 1.0 mi NNW 24.2 mph 41.4 mph N/A   Overcast
11:35 AM 10.4 °F -11.0 °F 5.0 °F 79% 29.82 in 0.8 mi NNW 27.6 mph 39.1 mph N/A   Overcast
11:55 AM 10.4 °F -12.0 °F 5.0 °F 79% 29.83 in 1.0 mi NNW 31.1 mph 38.0 mph N/A   Overcast
12:15 PM 10.4 °F -11.0 °F 5.0 °F 79% 29.84 in 2.0 mi NNW 27.6 mph 35.7 mph N/A   Overcast
12:55 PM 10.4 °F -11.7 °F 3.2 °F 73% 29.84 in 0.8 mi NNW 29.9 mph 39.1 mph N/A   Overcast
1:15 PM 10.4 °F -11.4 °F 3.2 °F 73% 29.84 in 1.8 mi NNW 28.8 mph 38.0 mph N/A   Overcast
1:35 PM 8.6 °F -14.5 °F 1.4 °F 73% 29.84 in 1.2 mi NNW 31.1 mph 44.9 mph N/A   Overcast
1:55 PM 8.6 °F -12.3 °F 3.2 °F 79% 29.85 in 1.8 mi NNW 24.2 mph 34.5 mph N/A   Overcast
2:15 PM 8.6 °F -14.1 °F 1.4 °F 73% 29.86 in 3.0 mi NNW 29.9 mph 39.1 mph N/A   Unknown
2:35 PM 8.6 °F -13.1 °F 1.4 °F 73% 29.87 in 7.0 mi NNW 26.5 mph 39.1 mph N/A   Mostly Cloudy
2:55 PM 6.8 °F -15.9 °F -0.4 °F 72% 29.89 in 10.0 mi NNW 27.6 mph 40.3 mph N/A   Mostly Cloudy
3:15 PM 6.8 °F -16.9 °F -2.2 °F 67% 29.90 in 10.0 mi NNW 31.1 mph 35.7 mph N/A   Mostly Cloudy
3:35 PM 5.0 °F -18.7 °F -0.4 °F 78% 29.91 in 10.0 mi NNW 28.8 mph 35.7 mph N/A   Mostly Cloudy
3:55 PM 5.0 °F -17.9 °F -2.2 °F 72% 29.91 in 10.0 mi NNW 26.5 mph 36.8 mph N/A   Mostly Cloudy
4:15 PM 5.0 °F -18.7 °F -4.0 °F 66% 29.93 in 10.0 mi NNW 28.8 mph 34.5 mph N/A   Scattered Clouds
4:35 PM 5.0 °F -18.7 °F -4.0 °F 66% 29.93 in 10.0 mi NNW 28.8 mph 36.8 mph N/A   Scattered Clouds
4:55 PM 3.2 °F -20.7 °F -4.0 °F 72% 29.94 in 10.0 mi NNW 27.6 mph 34.5 mph N/A   Scattered Clouds
5:15 PM 3.2 °F -20.3 °F -4.0 °F 72% 29.95 in 10.0 mi NNW 26.5 mph 32.2 mph N/A   Scattered Clouds
5:35 PM 3.2 °F -20.7 °F -4.0 °F 72% 29.96 in 10.0 mi NNW 27.6 mph 34.5 mph N/A   Clear
5:55 PM 3.2 °F -19.9 °F -4.0 °F 72% 29.98 in 10.0 mi NNW 25.3 mph 33.4 mph N/A   Mostly Cloudy
6:15 PM 1.4 °F -22.7 °F -5.8 °F 72% 29.99 in 10.0 mi NNW 26.5 mph 36.8 mph N/A   Mostly Cloudy
6:55 PM 1.4 °F -22.3 °F -5.8 °F 72% 30.01 in 10.0 mi North 25.3 mph 32.2 mph N/A   Mostly Cloudy
7:15 PM 1.4 °F -22.3 °F -5.8 °F 72% 30.01 in 10.0 mi NNW 25.3 mph 33.4 mph N/A   Scattered Clouds
7:35 PM -0.4 °F -25.2 °F -7.6 °F 72% 30.01 in 10.0 mi NNW 26.5 mph 33.4 mph N/A   Scattered Clouds
7:55 PM -0.4 °F -25.2 °F -7.6 °F 72% 30.01 in 10.0 mi NNW 26.5 mph 35.7 mph N/A   Mostly Cloudy
8:15 PM -0.4 °F -23.8 °F -5.8 °F 78% 30.03 in 7.0 mi NNW 23.0 mph 29.9 mph N/A   Overcast
8:35 PM -0.4 °F -23.3 °F -5.8 °F 78% 30.03 in 7.0 mi NNW 21.9 mph 27.6 mph N/A   Overcast
9:15 PM -0.4 °F -25.2 °F -5.8 °F 78% 30.04 in 3.0 mi NNW 26.5 mph 34.5 mph N/A   Overcast
9:35 PM -0.4 °F -22.3 °F -5.8 °F 78% 30.05 in 7.0 mi NNW 19.6 mph 29.9 mph N/A   Overcast
9:55 PM -0.4 °F -24.3 °F -5.8 °F 78% 30.05 in 2.0 mi NNW 24.2 mph 32.2 mph N/A   Overcast
10:15 PM -0.4 °F -23.8 °F -5.8 °F 78% 30.06 in 1.8 mi NNW 23.0 mph 31.1 mph N/A   Overcast
10:55 PM -0.4 °F -24.3 °F -4.0 °F 85% 30.06 in 1.2 mi NNW 24.2 mph 32.2 mph N/A   Overcast
11:15 PM 1.4 °F -23.9 °F -4.0 °F 78% 30.07 in 1.8 mi NNW 29.9 mph 34.5 mph N/A   Overcast
11:35 PM 1.4 °F -23.5 °F -4.0 °F 78% 30.08 in 1.2 mi NNW 28.8 mph 36.8 mph N/A   Overcast
11:55 PM -0.4 °F -24.3 °F -4.0 °F 85% 30.09 in 1.5 mi NNW 24.2 mph 35.7 mph N/A   Overcast